Year,Month,Day,Hour,Minute,Value (Times are PST for windgust in km/hr)
2020,11,18,00,00,12.90
2020,11,18,00,01,12.90
2020,11,18,00,02,11.30
2020,11,18,00,03,8.10
2020,11,18,00,04,9.60
2020,11,18,00,05,9.60
2020,11,18,00,06,16.10
2020,11,18,00,07,9.60
2020,11,18,00,08,14.50
2020,11,18,00,09,12.90
2020,11,18,00,10,12.90
2020,11,18,00,11,12.90
2020,11,18,00,12,12.90
2020,11,18,00,13,14.50
2020,11,18,00,14,12.90
2020,11,18,00,15,12.90
2020,11,18,00,16,11.30
2020,11,18,00,17,17.70
2020,11,18,00,18,16.10
2020,11,18,00,19,11.30
2020,11,18,00,20,14.50
2020,11,18,00,21,14.50
2020,11,18,00,22,6.40
2020,11,18,00,23,16.10
2020,11,18,00,24,12.90
2020,11,18,00,25,22.50
2020,11,18,00,26,14.50
2020,11,18,00,27,14.50
2020,11,18,00,28,19.30
2020,11,18,00,29,11.30
2020,11,18,00,30,16.10
2020,11,18,00,31,9.60
2020,11,18,00,32,17.70
2020,11,18,00,33,19.30
2020,11,18,00,34,16.10
2020,11,18,00,35,17.70
2020,11,18,00,36,17.70
2020,11,18,00,37,17.70
2020,11,18,00,38,14.50
2020,11,18,00,39,11.30
2020,11,18,00,40,12.90
2020,11,18,00,41,20.90
2020,11,18,00,42,20.90
2020,11,18,00,43,14.50
2020,11,18,00,44,11.30
2020,11,18,00,45,17.70
2020,11,18,00,46,12.90
2020,11,18,00,47,12.90
2020,11,18,00,48,16.10
2020,11,18,00,49,14.50
2020,11,18,00,50,14.50
2020,11,18,00,51,14.50
2020,11,18,00,52,17.70
2020,11,18,00,53,12.90
2020,11,18,00,54,11.30
2020,11,18,00,55,22.50
2020,11,18,00,56,14.50
2020,11,18,00,57,14.50
2020,11,18,00,58,11.30
2020,11,18,00,59,16.10
2020,11,18,01,00,12.90
2020,11,18,01,01,14.50
2020,11,18,01,02,9.60
2020,11,18,01,03,9.60
2020,11,18,01,04,11.30
2020,11,18,01,05,11.30
2020,11,18,01,06,11.30
2020,11,18,01,07,12.90
2020,11,18,01,08,14.50
2020,11,18,01,09,11.30
2020,11,18,01,10,14.50
2020,11,18,01,11,17.70
2020,11,18,01,12,16.10
2020,11,18,01,13,8.10
2020,11,18,01,14,12.90
2020,11,18,01,15,6.40
2020,11,18,01,16,9.60
2020,11,18,01,17,12.90
2020,11,18,01,18,6.40
2020,11,18,01,19,4.80
2020,11,18,01,20,9.60
2020,11,18,01,21,9.60
2020,11,18,01,22,9.60
2020,11,18,01,23,6.40
2020,11,18,01,24,6.40
2020,11,18,01,25,6.40
2020,11,18,01,26,9.60
2020,11,18,01,27,4.80
2020,11,18,01,28,6.40
2020,11,18,01,29,9.60
2020,11,18,01,30,4.80
2020,11,18,01,31,4.80
2020,11,18,01,32,4.80
2020,11,18,01,33,3.20
2020,11,18,01,34,3.20
2020,11,18,01,35,14.50
2020,11,18,01,36,8.10
2020,11,18,01,48,6.40
2020,11,18,01,49,6.40
2020,11,18,01,50,1.60
2020,11,18,01,55,4.80
2020,11,18,01,56,3.20
2020,11,18,03,15,1.60
2020,11,18,03,16,3.20
2020,11,18,03,17,4.80
2020,11,18,03,18,6.40
2020,11,18,03,19,4.80
2020,11,18,03,20,4.80
2020,11,18,03,21,3.20
2020,11,18,03,22,6.40
2020,11,18,03,23,3.20
2020,11,18,03,24,3.20
2020,11,18,03,25,1.60
2020,11,18,03,26,4.80
2020,11,18,03,27,3.20
2020,11,18,03,28,4.80
2020,11,18,03,29,6.40
2020,11,18,03,30,6.40
2020,11,18,03,31,12.90
2020,11,18,03,32,6.40
2020,11,18,03,33,3.20
2020,11,18,03,34,16.10
2020,11,18,03,35,12.90
2020,11,18,03,36,6.40
2020,11,18,03,37,9.60
2020,11,18,03,38,4.80
2020,11,18,03,39,4.80
2020,11,18,03,40,4.80
2020,11,18,03,41,4.80
2020,11,18,03,42,4.80
2020,11,18,03,43,3.20
2020,11,18,03,44,4.80
2020,11,18,03,45,4.80
2020,11,18,03,46,12.90
2020,11,18,03,47,6.40
2020,11,18,03,48,6.40
2020,11,18,03,49,4.80
2020,11,18,03,50,4.80
2020,11,18,03,51,6.40
2020,11,18,03,52,4.80
2020,11,18,03,53,1.60
2020,11,18,03,56,4.80
2020,11,18,03,57,3.20
2020,11,18,03,58,4.80
2020,11,18,03,59,3.20
2020,11,18,04,00,3.20
2020,11,18,04,01,3.20
2020,11,18,04,02,3.20
2020,11,18,04,03,1.60
2020,11,18,04,04,3.20
2020,11,18,04,05,3.20
2020,11,18,04,06,6.40
2020,11,18,04,07,3.20
2020,11,18,04,08,1.60
2020,11,18,04,09,3.20
2020,11,18,04,10,6.40
2020,11,18,04,11,8.10
2020,11,18,04,12,9.60
2020,11,18,04,13,3.20
2020,11,18,04,14,4.80
2020,11,18,04,15,6.40
2020,11,18,04,16,6.40
2020,11,18,04,17,6.40
2020,11,18,04,18,11.30
2020,11,18,04,19,9.60
2020,11,18,04,20,3.20
2020,11,18,04,21,4.80
2020,11,18,04,22,12.90
2020,11,18,04,23,6.40
2020,11,18,04,24,12.90
2020,11,18,04,25,6.40
2020,11,18,04,26,4.80
2020,11,18,04,27,4.80
2020,11,18,04,28,4.80
2020,11,18,04,29,6.40
2020,11,18,04,30,9.60
2020,11,18,04,31,9.60
2020,11,18,04,32,6.40
2020,11,18,04,33,8.10
2020,11,18,04,34,6.40
2020,11,18,04,35,8.10
2020,11,18,04,36,11.30
2020,11,18,04,37,6.40
2020,11,18,04,38,6.40
2020,11,18,04,39,3.20
2020,11,18,04,40,6.40
2020,11,18,04,41,6.40
2020,11,18,04,42,8.10
2020,11,18,04,43,4.80
2020,11,18,04,44,1.60
2020,11,18,04,45,6.40
2020,11,18,04,46,12.90
2020,11,18,04,47,12.90
2020,11,18,04,48,6.40
2020,11,18,04,49,8.10
2020,11,18,04,50,9.60
2020,11,18,04,51,9.60
2020,11,18,04,52,4.80
2020,11,18,04,53,3.20
2020,11,18,04,54,4.80
2020,11,18,04,55,6.40
2020,11,18,04,56,11.30
2020,11,18,04,57,12.90
2020,11,18,04,58,4.80
2020,11,18,04,59,4.80
2020,11,18,05,00,6.40
2020,11,18,05,01,4.80
2020,11,18,05,05,4.80
2020,11,18,05,06,3.20
2020,11,18,05,07,1.60
2020,11,18,05,08,3.20
2020,11,18,05,09,3.20
2020,11,18,05,10,3.20
2020,11,18,05,11,3.20
2020,11,18,05,12,3.20
2020,11,18,05,14,1.60
2020,11,18,05,20,1.60
2020,11,18,05,21,3.20
2020,11,18,05,22,3.20
2020,11,18,05,23,3.20
2020,11,18,05,25,1.60
2020,11,18,07,05,6.40
2020,11,18,07,06,4.80
2020,11,18,07,08,6.40
2020,11,18,07,09,4.80
2020,11,18,07,10,4.80
2020,11,18,07,11,4.80
2020,11,18,07,12,6.40
2020,11,18,07,13,16.10
2020,11,18,07,14,9.60
2020,11,18,07,15,1.60
2020,11,18,07,16,4.80
2020,11,18,07,17,4.80
2020,11,18,07,18,12.90
2020,11,18,07,19,8.10
2020,11,18,07,20,12.90
2020,11,18,07,21,8.10
2020,11,18,07,22,9.60
2020,11,18,07,23,4.80
2020,11,18,07,24,8.10
2020,11,18,07,25,6.40
2020,11,18,07,26,12.90
2020,11,18,07,27,8.10
2020,11,18,07,28,19.30
2020,11,18,07,29,17.70
2020,11,18,07,30,11.30
2020,11,18,07,31,19.30
2020,11,18,07,32,16.10
2020,11,18,07,33,9.60
2020,11,18,07,34,11.30
2020,11,18,07,35,11.30
2020,11,18,07,36,9.60
2020,11,18,07,37,11.30
2020,11,18,07,38,9.60
2020,11,18,07,39,6.40
2020,11,18,07,40,3.20
2020,11,18,07,41,6.40
2020,11,18,07,42,4.80
2020,11,18,07,43,3.20
2020,11,18,07,44,3.20
2020,11,18,07,55,3.20
2020,11,18,07,56,3.20
2020,11,18,07,57,3.20
2020,11,18,07,58,4.80
2020,11,18,07,59,3.20
2020,11,18,08,00,3.20
2020,11,18,08,01,3.20
2020,11,18,08,02,3.20
2020,11,18,08,03,3.20
2020,11,18,08,04,3.20
2020,11,18,08,49,4.80
2020,11,18,08,50,4.80
2020,11,18,08,51,6.40
2020,11,18,08,52,4.80
2020,11,18,08,53,3.20
2020,11,18,08,55,1.60
2020,11,18,08,56,1.60
2020,11,18,10,37,1.60
2020,11,18,10,38,3.20
2020,11,18,10,39,3.20
2020,11,18,10,40,4.80
2020,11,18,11,06,3.20
2020,11,18,11,07,4.80
2020,11,18,11,08,3.20
2020,11,18,11,09,3.20
2020,11,18,11,10,3.20
2020,11,18,11,11,4.80
2020,11,18,11,12,3.20
2020,11,18,11,13,3.20
2020,11,18,11,14,3.20
2020,11,18,11,45,3.20
2020,11,18,11,46,1.60
2020,11,18,11,48,3.20
2020,11,18,11,52,3.20
2020,11,18,12,11,4.80
2020,11,18,12,12,4.80
2020,11,18,12,13,1.60
2020,11,18,12,14,1.60
2020,11,18,12,15,1.60
2020,11,18,12,16,3.20
2020,11,18,12,17,3.20
2020,11,18,12,18,3.20
2020,11,18,12,19,1.60
2020,11,18,12,20,3.20
2020,11,18,12,22,3.20
2020,11,18,12,23,3.20
2020,11,18,12,24,3.20
2020,11,18,12,25,3.20
2020,11,18,12,26,6.40
2020,11,18,12,27,4.80
2020,11,18,12,28,3.20
2020,11,18,12,29,4.80
2020,11,18,12,30,3.20
2020,11,18,12,31,1.60
2020,11,18,12,32,3.20
2020,11,18,12,34,4.80
2020,11,18,12,35,4.80
2020,11,18,12,36,1.60
2020,11,18,12,38,4.80
2020,11,18,12,39,4.80
2020,11,18,12,40,4.80
2020,11,18,12,41,3.20
2020,11,18,12,42,3.20
2020,11,18,12,43,3.20
2020,11,18,12,45,3.20
2020,11,18,12,46,3.20
2020,11,18,12,51,4.80
2020,11,18,12,52,4.80
2020,11,18,12,53,1.60
2020,11,18,12,55,3.20
2020,11,18,12,56,4.80
2020,11,18,12,57,1.60
2020,11,18,12,58,1.60
2020,11,18,12,59,3.20
2020,11,18,13,00,4.80
2020,11,18,13,01,3.20
2020,11,18,13,02,4.80
2020,11,18,13,03,1.60
2020,11,18,13,04,3.20
2020,11,18,13,05,3.20
2020,11,18,13,06,3.20
2020,11,18,13,07,3.20
2020,11,18,13,08,3.20
2020,11,18,13,09,1.60
2020,11,18,13,10,4.80
2020,11,18,13,11,6.40
2020,11,18,13,13,6.40
2020,11,18,13,14,3.20
2020,11,18,13,15,3.20
2020,11,18,13,16,3.20
2020,11,18,13,17,3.20
2020,11,18,13,18,4.80
2020,11,18,13,19,3.20
2020,11,18,13,31,4.80
2020,11,18,13,32,4.80
2020,11,18,13,33,8.10
2020,11,18,13,34,6.40
2020,11,18,13,35,4.80
2020,11,18,13,36,3.20
2020,11,18,13,38,4.80
2020,11,18,13,39,4.80
2020,11,18,13,40,6.40
2020,11,18,13,41,4.80
2020,11,18,13,42,3.20
2020,11,18,13,43,1.60
2020,11,18,13,44,4.80
2020,11,18,13,45,4.80
2020,11,18,13,46,3.20
2020,11,18,13,48,4.80
2020,11,18,13,49,4.80
2020,11,18,13,50,6.40
2020,11,18,13,51,6.40
2020,11,18,13,52,3.20
2020,11,18,13,57,3.20
2020,11,18,13,58,4.80
2020,11,18,13,59,4.80
2020,11,18,14,00,3.20
2020,11,18,14,01,4.80
2020,11,18,14,02,1.60
2020,11,18,14,03,1.60
2020,11,18,14,04,1.60
2020,11,18,14,09,4.80
2020,11,18,14,10,4.80
2020,11,18,14,14,4.80
2020,11,18,14,15,3.20
2020,11,18,14,16,4.80
2020,11,18,14,17,3.20
2020,11,18,14,18,3.20
2020,11,18,14,41,4.80
2020,11,18,14,42,1.60
2020,11,18,14,49,4.80
2020,11,18,14,50,4.80
2020,11,18,14,51,3.20
2020,11,18,14,52,3.20
2020,11,18,14,53,4.80
2020,11,18,14,54,3.20
2020,11,18,14,55,6.40
2020,11,18,14,56,4.80
2020,11,18,14,57,3.20
2020,11,18,14,58,6.40
2020,11,18,14,59,4.80
2020,11,18,15,00,3.20
2020,11,18,15,01,3.20
2020,11,18,15,02,1.60
2020,11,18,15,04,3.20
2020,11,18,15,05,3.20
2020,11,18,15,06,1.60
2020,11,18,15,07,3.20
2020,11,18,15,15,3.20
2020,11,18,15,16,4.80
2020,11,18,15,17,4.80
2020,11,18,15,18,3.20
2020,11,18,15,19,3.20
2020,11,18,15,20,3.20
2020,11,18,15,21,1.60
2020,11,18,15,22,1.60
2020,11,18,15,26,1.60
2020,11,18,23,20,1.60
2020,11,18,23,24,1.60
2020,11,18,23,33,1.60
2020,11,18,23,34,1.60
2020,11,18,23,47,3.20
2020,11,18,23,48,3.20
2020,11,18,23,49,1.60
2020,11,18,23,50,3.20
2020,11,18,23,51,6.40
2020,11,18,23,52,4.80
2020,11,18,23,53,3.20
2020,11,18,23,54,3.20
2020,11,18,23,55,1.60
2020,11,18,23,56,4.80
2020,11,18,23,57,4.80
2020,11,18,23,58,4.80
2020,11,18,23,59,3.20
